Actual water levels and discharges of Morava river

Lanžhot

Date and time (UTC) H (cm) Q (m3/s)
16. 7. 2019 00:10 12 11
16. 7. 2019 00:00 12 11
15. 7. 2019 23:00 11 11
15. 7. 2019 22:00 11 11
15. 7. 2019 21:00 11 11
15. 7. 2019 20:00 10 11
15. 7. 2019 19:00 10 11
15. 7. 2019 18:00 10 11
15. 7. 2019 17:00 10 11
15. 7. 2019 16:00 10 11
15. 7. 2019 15:00 10 11
15. 7. 2019 14:00 10 11
15. 7. 2019 13:00 10 11
15. 7. 2019 12:00 10 11

H - vodni stav, Q - discharge

Strážnice

Date and time (UTC) H (cm) Q (m3/s)
16. 7. 2019 00:30 94 12
16. 7. 2019 00:00 95 12
15. 7. 2019 23:00 95 12
15. 7. 2019 22:00 95 12
15. 7. 2019 21:00 95 12
15. 7. 2019 20:00 95 12
15. 7. 2019 19:00 95 12
15. 7. 2019 18:00 95 12
15. 7. 2019 17:00 95 12
15. 7. 2019 16:00 95 12
15. 7. 2019 15:00 95 12
15. 7. 2019 14:00 95 12
15. 7. 2019 13:00 95 12
15. 7. 2019 12:00 96 12

H - vodni stav, Q - discharge

Spytihněv

Date and time (UTC) H (cm) Q (m3/s)
16. 7. 2019 00:40 83 14
16. 7. 2019 00:00 83 14
15. 7. 2019 23:00 80 13
15. 7. 2019 22:00 73 12
15. 7. 2019 21:00 75 12
15. 7. 2019 20:00 85 14
15. 7. 2019 19:00 85 14
15. 7. 2019 18:00 82 14
15. 7. 2019 17:00 71 11
15. 7. 2019 16:00 74 12
15. 7. 2019 15:00 76 12
15. 7. 2019 14:00 79 13
15. 7. 2019 13:00 79 13
15. 7. 2019 12:00 81 13

H - vodni stav, Q - discharge

Kroměříž

Date and time (UTC) H (cm) Q (m3/s)
16. 7. 2019 00:40 120 15
16. 7. 2019 00:00 120 15
15. 7. 2019 23:00 119 15
15. 7. 2019 22:00 120 15
15. 7. 2019 21:00 119 15
15. 7. 2019 20:00 119 15
15. 7. 2019 19:00 119 15
15. 7. 2019 18:00 120 15
15. 7. 2019 17:00 119 15
15. 7. 2019 16:00 117 15
15. 7. 2019 15:00 116 14
15. 7. 2019 14:00 118 15
15. 7. 2019 13:00 119 15
15. 7. 2019 12:00 119 15

H - vodni stav, Q - discharge

Olomouc-Nové Sady tok

Date and time (UTC) H (cm) Q (m3/s)
16. 7. 2019 00:40 87 8
16. 7. 2019 00:00 87 8
15. 7. 2019 23:00 87 8
15. 7. 2019 22:00 86 8
15. 7. 2019 21:00 85 7
15. 7. 2019 20:00 85 7
15. 7. 2019 19:00 85 7
15. 7. 2019 18:00 86 8
15. 7. 2019 17:00 86 8
15. 7. 2019 16:00 85 7
15. 7. 2019 15:00 85 7
15. 7. 2019 14:00 85 7
15. 7. 2019 13:00 86 8
15. 7. 2019 12:00 87 8

H - vodni stav, Q - discharge

Moravičany

Date and time (UTC) H (cm) Q (m3/s)
16. 7. 2019 00:40 78 5
16. 7. 2019 00:00 78 5
15. 7. 2019 23:00 78 5
15. 7. 2019 22:00 78 5
15. 7. 2019 21:00 78 5
15. 7. 2019 20:00 78 5
15. 7. 2019 19:00 78 5
15. 7. 2019 18:00 79 5
15. 7. 2019 17:00 79 5
15. 7. 2019 16:00 78 5
15. 7. 2019 15:00 78 5
15. 7. 2019 14:00 78 5
15. 7. 2019 13:00 78 5
15. 7. 2019 12:00 78 5

H - vodni stav, Q - discharge
Source data
Labe Basin Vltava Basin ČHMÚ